Location: Gull Harbor
(47.1000°N, 122.9000°W)
Time: 18:30:08
(UTC-08:00)

BlueWalker 3 - Pass Details

Date: 21 December 2025
Orbit: 452 x 463 km, 53.2° (Epoch: 13 January)

Event Time Altitude Azimuth Distance (km) Brightness Sun altitude
Rises 07:00:43 0° 230° (SW) 2,453 5.2 -8.9°
Reaches altitude 10° 07:02:51 10° 228° (SW) 1,585 4.3 -8.5°
Maximum altitude 07:06:23 65° 146° (SSE) 505 2.2 -8.0°
Drops below altitude 10° 07:09:57 10° 64° (ENE) 1,601 5.1 -7.4°
Sets 07:12:07 0° 62° (ENE) 2,480 6.0 -7.1°
